Flag for Gaza Strip Weather past 2 weeks in Khan Yunis, Gaza Strip

Now
81 °F

Clear.


Feels Like: 84 °F
Forecast: 76 / 85 °F
Wind: 5 mph from North

Location: El Arish

Current Time: Aug 21, 2014 at 11:14:46 PM

Latest Report: Aug 21, 2014 at 10:00 PM


Visibility: 10 mi

Pressure: 29.86 "Hg

Humidity: 70%

Dew point: 70 °F

Location of Khan YunisLocation

Historic Weather in Khan Yunis — Graph

°F

Khan Yunis temperature yesterday

Maximum temperature yesterday: 90 °F (at 12:00 PM)
Minimum temperature yesterday: 70 °F (at 5:00 AM)
Average temperature yesterday: 81 °F

Past Weeks' High & Low Weather Summary

 TemperatureHumidityPressure
High91 °F (Aug 15, 2:00 PM)100% (Aug 7, 4:00 AM)29.95 "Hg (Aug 7, 4:00 AM)
Low70 °F (Aug 7, 5:00 AM)41% (Aug 21, 2:00 PM)29.62 "Hg (Aug 17, 3:00 PM)
Average80 °F74%29.79 "Hg
* Reported Aug 6 11:00 PM — Aug 21 10:00 PM, Khan Yunis, Weather by CustomWeather, © 2014

Note: Actual official high and low records may vary slightly from our data, if they occured in-between our weather recording intervals... More about our weather records

Advertising

Khan Yunis weather history for previous 24 hours

 ConditionsComfort  
Time TempWeatherWind HumidityBarometerVisibility
10:00 PM
Aug 21
81 °FClear.5 mph70%29.86 "Hg10 mi
9:00 PM81 °FClear.5 mph70%29.86 "Hg10 mi
8:00 PM81 °FClear.5 mph66%29.86 "Hg10 mi
7:00 PM84 °FSunny.12 mph58%29.83 "Hg10 mi
6:00 PM86 °FSunny.7 mph55%29.83 "Hg10 mi
5:00 PM86 °FSunny.7 mph59%29.83 "Hg10 mi
3:00 PM88 °FSunny.7 mph52%29.86 "Hg10 mi
2:00 PM90 °FSunny.5 mph41%29.89 "Hg10 mi
9:00 AM82 °FScattered clouds.2 mph66%29.92 "HgN/A
8:00 AM79 °FSunny.2 mph70%29.92 "Hg10 mi
6:00 AM70 °FClear.2 mph88%29.89 "Hg10 mi
5:00 AM72 °FClear.2 mph88%29.89 "Hg10 mi
4:00 AM72 °FClear.2 mph88%29.89 "Hg10 mi
3:00 AM73 °FClear.5 mph83%29.89 "Hg10 mi
2:00 AM73 °FClear.No wind83%29.89 "Hg10 mi
1:00 AM75 °FClear.7 mph78%29.92 "Hg10 mi
12:00 AM77 °FClear.5 mph79%29.89 "Hg10 mi
11:00 PM
Aug 20
79 °FClear.5 mph74%29.92 "Hg10 mi
Weather by CustomWeather, © 2014

See weather overviewHow to use our weather pages